This is the latest recevied weather packets stored in our database for station/object SQ7FJB-2. If no packets are shown the sender has not sent any weather packets the latest 10 day(s).
| Time | Temp. | Humidity | Pressure | Rain* | Wind** | Luminosity | Snow |
|---|---|---|---|---|---|---|---|
| 1777620860 | 15° C | 46% | 1025.4 hPa | 0 mm | - | - | - |
| 1777620247 | 15° C | 42% | 1025.3 hPa | 0 mm | - | - | - |
| 1777619635 | 14.44° C | 46% | 1025.2 hPa | 0 mm | - | - | - |
| 1777619035 | 14.44° C | 46% | 1025.2 hPa | 0 mm | - | - | - |
| 1777618423 | 13.89° C | 45% | 1025.2 hPa | 0 mm | - | - | - |
| 1777617810 | 13.89° C | 47% | 1025.1 hPa | 0 mm | - | - | - |
| 1777617210 | 13.33° C | 49% | 1025.1 hPa | 0 mm | - | - | - |
| 1777616597 | 13.33° C | 52% | 1025.1 hPa | 0 mm | - | - | - |
| 1777615987 | 12.78° C | 55% | 1025.2 hPa | 0 mm | - | - | - |
| 1777615373 | 12.22° C | 56% | 1025.2 hPa | 0 mm | - | - | - |
| 1777614760 | 11.11° C | 59% | 1025.2 hPa | 0 mm | - | - | - |
| 1777614147 | 11.11° C | 61% | 1025.2 hPa | 0 mm | - | - | - |
| 1777613547 | 11.11° C | 60% | 1025.1 hPa | 0 mm | - | - | - |
| 1777612947 | 11.11° C | 62% | 1025.1 hPa | 0 mm | - | - | - |
| 1777612335 | 10° C | 63% | 1025.1 hPa | 0 mm | - | - | - |
| 1777611722 | 10° C | 64% | 1025 hPa | 0 mm | - | - | - |
| 1777611110 | 9.44° C | 64% | 1024.9 hPa | 0 mm | - | - | - |
| 1777610498 | 8.89° C | 67% | 1025 hPa | 0 mm | - | - | - |
| 1777609897 | 8.89° C | 67% | 1025 hPa | 0 mm | - | - | - |
| 1777608685 | 8.33° C | 71% | 1025 hPa | 0 mm | - | - | - |
| 1777608085 | 7.78° C | 71% | 1025 hPa | 0 mm | - | - | - |
| 1777607485 | 7.78° C | 70% | 1025 hPa | 0 mm | - | - | - |
| 1777606872 | 7.78° C | 70% | 1024.9 hPa | 0 mm | - | - | - |
| 1777606272 | 7.78° C | 70% | 1024.9 hPa | 0 mm | - | - | - |
| 1777605672 | 7.78° C | 68% | 1024.9 hPa | 0 mm | - | - | - |
* Rain latest hour (hover to see other rain measurements)
** Current wind speed in m/s (hover to see current wind gust speed)